Погода в Дарбанде

Таджикистан     38°53′59″N   70°06′58″E
темп.,
°C
ветер,
м/с
пор.,
м/с
влажн.,
%
обл.,
%
осадки,
мм/ч
давл.,
гПа
погр.,
м
24 мая, вт
вт2423:00+5ссз32650 0.1 101415
02:00+4ссз32650 0.0 101316
05:00+4ссз33520 0.0 101317
08:00+9всв22450 0.0 1013330
11:00+13юв21430 0.0 1011834
14:00+15ююв22314 0.0 10101243
17:00+16сз11291 0.0 1010812
20:00+10ссз44370 0.0 101425
25 мая, ср
ср2523:00+9ссз43250 0.0 101521
02:00+8ссз33250 0.0 101517
05:00+8ссз43270 0.0 101618
08:00+14св22331 0.0 1016241
11:00+18вюв21323 0.0 1014839
14:00+20юв22250 0.0 10121465
17:00+20ю11280 0.0 1012862
20:00+13сз54340 0.0 101633
26 мая, чт
чт2623:00+12ссз43390 0.0 101726
02:00+11ссз43370 0.0 101720
05:00+10ссз433263 0.0 101719
08:00+16всв223519 0.0 1016256
11:00+19юв213158 0.0 10141052
14:00+21ю32283 0.0 10121884
17:00+20ююз333844 0.0 10111692
20:00+13сз225936 0.3 101419
27 мая, пт
пт2723:00+12ссз22573 0.4 101515
02:00+10ссз116215 0.1 101411
05:00+10ссз0163100 0.3 101310
08:00+13ю236140 0.5 1014311
11:00+15ю445518 1.8 10131127
14:00+15ююз566194 2.4 10141324
17:00+13ююз457188 6.8 1016828
20:00+10ююз3382100 2.4 1019179
28 мая, сб
сб2823:00+8з2285100 3.9 1021155
02:00+8ююз2388100 0.7 1021275
05:00+7ююз118691 1.1 1021122
08:00+9всв117948 0.1 1021403
11:00+12ю336235 0.9 10191187
14:00+14юз335581 0.9 10161552
17:00+13ю335849 1.6 10161089
20:00+10юз116859 0.1 101736